Houghton, MI

11:41 PM EST on December 10, 2017 (GMT -0500)
Houghton County Memorial

Weather History for KCMX - April, 2013

Change the Weather History Date:

Tuesday, April 16, 2013

  Actual Average Record
Temperature  
Mean Temperature 34 °F -  
Max Temperature 37 °F 48 °F 84 °F (2002)
Min Temperature 30 °F 32 °F 9 °F (2014)
Degree Days  
Heating Degree Days 32    
Moisture  
Dew Point 29 °F    
Average Humidity 80    
Maximum Humidity 89    
Minimum Humidity 70    
Precipitation  
Precipitation 0.00 in - - ()
Sea Level Pressure  
Sea Level Pressure 30.04 in    
Wind  
Wind Speed 17 mph (WNW)    
Max Wind Speed 23 mph    
Max Gust Speed 30 mph    
Visibility 10 miles    
Events      
Averages and records for this station are not official NWS values.
T = Trace of Precipitation, MM = Missing Value Source: NWS Daily Summary

Daily Weather History Graph

Daily Weather History Graph

Search for Another Location

Airport or City:

Trip Planner

Search our weather history database for the weather conditions in past years. The results will help you decide how hot, cold, wet, or windy it might be!

Date:

Astronomy

Apr. 16, 2013 Rise Set
Actual Time 7:03 AM EDT 8:44 PM EDT
Civil Twilight 6:31 AM EDT 9:16 PM EDT
Nautical Twilight 5:52 AM EDT 9:56 PM EDT
Astronomical Twilight 5:09 AM EDT 10:39 PM EDT
Moon 11:11 AM EDT (4/16) 1:52 AM EDT (4/16)
Length of Visible Light 14h 45m
Length of Day
13h 41m
Waxing Crescent, 33% of the Moon is Illuminated
Apr 16
Waxing Crescent
Apr 18
First Quarter
Apr 25
Full
May 2
Last Quarter
May 9
New

Hourly Weather History & Observations

Time (EDT) Temp. Windchill Dew Point Humidity Pressure Visibility Wind Dir Wind Speed Gust Speed Precip Events Conditions
12:53 AM 37.0 °F 27.7 °F 28.0 °F 70% 29.80 in 10.0 mi WSW 16.1 mph 23.0 mph N/A   Overcast
1:53 AM 36.0 °F 25.0 °F 28.0 °F 73% 29.82 in 10.0 mi WSW 20.7 mph 26.5 mph N/A   Overcast
2:53 AM 36.0 °F 25.6 °F 28.9 °F 76% 29.83 in 10.0 mi West 18.4 mph 25.3 mph N/A   Overcast
3:53 AM 36.0 °F 25.6 °F 28.9 °F 76% 29.82 in 10.0 mi West 18.4 mph 27.6 mph N/A   Overcast
4:53 AM 35.1 °F 24.1 °F 30.0 °F 82% 29.86 in 10.0 mi West 19.6 mph 26.5 mph N/A   Overcast
5:35 AM 35.6 °F 26.2 °F 30.2 °F 81% 29.83 in 10.0 mi West 15.0 mph 25.3 mph N/A   Overcast
5:53 AM 34.0 °F 23.0 °F 30.9 °F 89% 29.87 in 10.0 mi West 18.4 mph 26.5 mph N/A   Overcast
6:09 AM 33.8 °F 22.2 °F 30.2 °F 87% 29.84 in 10.0 mi West 20.7 mph - N/A   Overcast
6:32 AM 33.8 °F 23.9 °F 30.2 °F 87% 29.84 in 10.0 mi West 15.0 mph 24.2 mph N/A   Overcast
6:40 AM 33.8 °F 23.2 °F 30.2 °F 87% 29.84 in 10.0 mi West 17.3 mph - N/A   Overcast
6:53 AM 34.0 °F 23.4 °F 30.9 °F 89% 29.88 in 10.0 mi West 17.3 mph - N/A   Overcast
7:22 AM 33.8 °F 23.9 °F 30.2 °F 87% 29.85 in 10.0 mi West 15.0 mph - N/A   Overcast
7:53 AM 33.8 °F 22.5 °F 30.2 °F 87% 29.88 in 10.0 mi West 19.6 mph 27.6 mph N/A   Overcast
8:10 AM 33.8 °F 22.2 °F 30.2 °F 87% 29.89 in 10.0 mi West 20.7 mph 27.6 mph N/A   Overcast
8:40 AM 33.8 °F 22.8 °F 30.2 °F 87% 29.92 in 10.0 mi West 18.4 mph 27.6 mph N/A   Overcast
8:53 AM 34.0 °F 21.8 °F 30.9 °F 89% 29.95 in 10.0 mi West 23.0 mph 27.6 mph N/A   Overcast
9:42 AM 35.6 °F 24.8 °F 30.2 °F 81% 29.94 in 10.0 mi West 19.6 mph 29.9 mph N/A   Overcast
9:53 AM 35.1 °F 24.1 °F 30.9 °F 85% 29.98 in 10.0 mi WNW 19.6 mph 28.8 mph N/A   Overcast
10:18 AM 35.6 °F 26.2 °F 30.2 °F 81% 29.96 in 10.0 mi WNW 15.0 mph 25.3 mph N/A   Overcast
10:28 AM 35.6 °F 24.5 °F 30.2 °F 81% 29.96 in 10.0 mi WNW 20.7 mph 26.5 mph N/A   Overcast
10:53 AM 36.0 °F 25.6 °F 30.0 °F 79% 30.01 in 10.0 mi WNW 18.4 mph 26.5 mph N/A   Mostly Cloudy
11:53 AM 35.1 °F 25.2 °F 30.0 °F 82% 30.06 in 10.0 mi WNW 16.1 mph 25.3 mph N/A   Overcast
12:53 PM 35.1 °F 25.2 °F 28.9 °F 78% 30.11 in 10.0 mi WNW 16.1 mph - N/A   Overcast
1:53 PM 35.1 °F 25.2 °F 28.0 °F 76% 30.14 in 10.0 mi NW 16.1 mph - N/A   Overcast
2:53 PM 35.1 °F 25.5 °F 27.0 °F 72% 30.17 in 10.0 mi NW 15.0 mph - N/A   Overcast
3:53 PM 36.0 °F 25.3 °F 28.0 °F 73% 30.19 in 10.0 mi WNW 19.6 mph - N/A   Overcast
4:53 PM 35.1 °F 25.2 °F 27.0 °F 72% 30.22 in 10.0 mi WNW 16.1 mph - N/A   Scattered Clouds
5:04 PM 35.6 °F 25.9 °F 26.6 °F 70% 30.19 in 10.0 mi NW 16.1 mph - N/A   Mostly Cloudy
5:12 PM 35.6 °F 26.2 °F 26.6 °F 70% 30.19 in 10.0 mi NW 15.0 mph - N/A   Scattered Clouds
5:20 PM 35.6 °F 26.6 °F 26.6 °F 70% 30.19 in 10.0 mi NW 13.8 mph - N/A   Mostly Cloudy
5:53 PM 36.0 °F 28.0 °F 27.0 °F 70% 30.25 in 10.0 mi WNW 11.5 mph - N/A   Overcast
6:53 PM 35.1 °F 26.9 °F 28.0 °F 76% 30.28 in 10.0 mi WNW 11.5 mph - N/A   Overcast
7:53 PM 35.1 °F 27.9 °F 28.0 °F 76% 30.30 in 10.0 mi WNW 9.2 mph - N/A   Overcast
8:22 PM 35.6 °F 30.7 °F 28.4 °F 75% 30.27 in 10.0 mi WNW 5.8 mph - N/A   Overcast
8:53 PM 34.0 °F 28.0 °F 28.9 °F 82% 30.32 in 10.0 mi WNW 6.9 mph - N/A   Overcast
9:53 PM 32.0 °F 28.7 °F 28.0 °F 85% 30.35 in 10.0 mi North 3.5 mph - N/A   Scattered Clouds
10:53 PM 30.9 °F 26.2 °F 28.0 °F 89% 30.38 in 10.0 mi NNE 4.6 mph - N/A   Mostly Cloudy
11:53 PM 30.0 °F 26.5 °F 25.0 °F 82% 30.40 in 10.0 mi NNE 3.5 mph - N/A   Clear